H-2A R/B (38341 NORAD) Tracking and Keplerian Element Data

This shows tracking and keplerian element data for the satellite.

Feedback or suggestion? Click here.




ElementValue
Catalog38341
NameH-2A R/B
Epoch Orbit42580
Epoch Day90.89839747
Epoch Year2020
RAAN240.8817
Inclination98.4879
Eccentricity0.0056648
Argument of Perigee123.7952
Mean Anonmoly236.8673
Mean Motion14.84004236
Decay Rate1.36E-06
L11 38341U 12025E 20090.89839747 .00000136 00000-0 23416-4 0 9995
L22 38341 98.4879 240.8817 0056648 123.7952 236.8673 14.84004236425800

Live tracking and technical data element details for H-2A R/B (NORAD 38341). H-2A R/B can be tracked NOW for your location showing map with azimuth and elevation plus other details from your city location.

Track the satellite on the map from your city or location and see movement details for azimuth, elevation, latitude, longitude, range, height, and movement on the map or in text.







IsCatalogInMostPopularTable: catalog: 38341, numindb: 394
Update: records affected: 1



GetName: 38341 H-2A R/B

Hit Count: updated at: Thu, 02 Apr 2020 04:06:11 GMT